Cloud_Cover
100 100 100 100 100 100 100 100 100 100 100 100 100 100 100 100 100 100 100 100 100 100 100 100 100 100 100 100 100 100 100 100 100 99 100 100 100 100 100 100 61 5 18 7
100 100 100 100 100 100 100 100 100 100 100 72 100 100 100 97 100 100 100 100 100 100 100 100 100 100 100 100 100 100 100 100 100 100 100 100 100 100 74 100 67 11 5 5
100 100 100 100 100 100 100 100 100 100 100 100 100 100 100 100 100 100 100 100 100 100 100 100 100 100 100 100 100 100 100 100 100 100 100 100 87 81 64 100 100 100 36 18
6 100 100 100 100 100 100 100 100 100 100 100 100 100 100 100 100 100 100 100 100 100 100 100 100 100 100 100 100 100 100 100 100 100 86 65 42 78 89 100 100 100 99 40
0 47 100 100 100 100 100 100 100 100 100 100 100 100 100 100 100 100 100 100 100 100 100 100 100 100 100 100 100 100 100 100 100 100 100 100 100 100 100 92 100 100 99 31
0 0 41 100 100 100 100 100 100 100 61 75 100 100 100 100 100 100 100 100 100 100 100 100 100 100 100 100 100 100 100 100 100 100 100 100 100 100 100 100 100 100 100 100
3 2 0 6 99 100 100 100 100 100 100 25 100 97 96 100 100 100 100 100 100 100 100 100 100 100 100 100 100 100 100 100 100 100 100 100 100 100 100 100 100 100 100 100
3 4 1 0 0 100 100 100 100 100 100 100 28 16 78 100 100 100 100 100 90 98 17 68 100 71 68 100 98 100 99 99 100 100 100 99 100 100 100 100 100 100 100 100
0 0 0 0 0 0 61 99 100 100 97 89 7 8 97 100 100 100 100 100 100 100 52 13 8 8 11 59 53 80 87 98 91 98 99 61 93 100 100 100 100 100 100 100
0 3 0 0 0 0 0 0 32 85 94 100 98 15 100 100 100 100 100 100 100 100 93 53 51 81 100 100 99 68 65 85 97 100 100 100 100 100 100 100 100 100 100 100
42 5 4 0 0 0 0 0 0 13 100 66 18 59 93 98 100 100 100 100 100 100 100 100 100 100 100 100 100 100 100 100 100 100 100 100 100 100 100 100 100 100 100 100
100 65 5 4 0 5 1 0 0 0 0 5 32 100 100 100 100 100 100 100 100 100 100 100 100 100 100 100 100 100 100 100 100 100 100 100 100 100 100 100 100 100 100 100
100 100 64 100 100 62 0 0 0 0 4 0 3 61 100 100 100 100 100 100 34 42 100 100 100 100 100 98 96 100 100 100 100 100 100 100 100 100 100 100 100 100 100 100
100 100 100 10 2 78 26 6 5 4 5 8 8 68 100 100 100 100 100 94 83 43 60 74 100 100 100 100 100 100 99 71 84 100 100 100 100 100 100 100 100 100 100 100
100 100 100 55 95 8 4 5 79 12 0 0 14 3 36 100 100 100 100 50 50 7 18 41 34 39 66 88 100 100 100 100 100 100 100 100 100 100 100 100 100 100 100 100
100 100 100 100 100 85 100 24 100 100 3 0 0 1 93 100 100 100 75 5 60 36 5 0 0 0 0 1 3 5 50 100 100 100 100 100 100 100 100 100 100 100 100 100
99 100 100 95 100 100 100 90 5 4 5 3 0 27 85 8 15 8 5 5 4 0 0 0 0 0 0 0 0 0 16 96 67 86 100 100 100 100 100 100 100 100 100 100
93 68 100 100 100 100 84 5 36 84 5 13 0 94 33 2 0 0 0 0 0 0 0 0 0 0 0 0 0 0 0 0 28 100 100 83 86 100 93 100 100 100 100 100
100 98 100 100 100 100 32 30 56 22 2 1 42 100 89 14 49 4 4 3 3 5 0 0 0 0 0 0 0 0 0 0 0 5 92 95 100 96 78 98 100 100 100 100
100 100 100 100 100 100 11 84 100 85 73 1 4 96 100 23 0 43 60 33 5 5 5 5 2 0 0 0 0 0 0 0 0 4 5 26 51 100 100 97 100 100 100 100
100 100 100 100 100 93 6 10 100 100 39 6 1 91 100 6 2 92 78 5 5 1 5 0 2 5 5 5 1 0 0 0 0 0 0 5 88 100 90 92 100 100 100 100
90 100 100 100 100 99 1 40 100 26 0 37 84 12 29 1 3 40 54 5 5 5 0 0 0 1 5 5 5 0 0 0 0 0 0 4 5 82 72 74 91 100 100 100
62 99 17 95 81 75 1 5 90 92 84 5 40 1 5 5 3 93 5 45 89 37 5 5 3 0 1 0 5 0 1 0 0 0 0 5 5 5 8 10 42 50 97 100
83 3 100 100 100 78 0 0 0 100 100 90 5 1 5 4 1 2 5 4 7 5 4 0 0 2 2 0 4 4 1 0 0 50 89 99 98 99 85 69 100 100 100 100
19 8 4 77 22 3 0 0 0 52 100 100 10 3 75 73 5 4 0 2 4 4 0 0 0 0 0 0 3 36 34 17 93 100 100 100 100 100 100 100 100 100 100 100
94 99 100 1 13 86 48 2 3 0 5 100 98 62 8 87 97 79 4 0 0 0 0 0 0 0 35 22 97 100 100 80 100 100 100 100 100 100 100 100 100 95 100 100